Startseite
Über Mich
AHP4
Galerie
Sehschlangen
Tourenbuch
Bookmarks
Elektronik
Bewertung
Geschichten
[Tagesmessung] [Jahreswerte] [Information]

Messwerte vom 23.11.2020

Die letzten Messwerte von 16:55:48 Uhr:
KategorieMesswert
Temperatur [°C]6
Luftdruck [mBar]1011
Sonneneinstrahlung3
Wind [km/h]2
Niederschlag [l/m²]0
rel.Luftfeucht.87.6%
CO2 [ppm]765

Diagramme
Messwerte vom 23.11.2020
Tagesaggregation
KategorieMinimumMaximumSchnittSumme
Temperatur [°C]3135.8142
Luftdruck [mBar]100610121009.0059
Sonneneinstrahlung24298.5575
Wind [km/h]17
rF [%]64.396.689.35
Niederschlag [l/m²]0
CO2 [ppm]407772609.9
Einordnung alsVegetationstag

Messungen an benachbarten Tagen: Zur Jahresaggregation 2020
Tabelle aller Messwerte
UhrzeitTemperatur [°C]Luftdruck [mBar]SonneWind [km/h]Regen [l/m²]rF [%]CO2 [ppm]
00:01:49 5 1008 0 3 0 96.6 531
00:04:51 5 1008 0 2 0 96.6 531
00:07:50 5 1008 0 2 0 96.6 513
00:10:50 5 1007 0 0 0 96.6 509
00:13:47 5 1007 0 3 0 96.6 510
00:16:48 5 1007 0 4 0 96.6 515
00:19:49 5 1008 0 1 0 96.6 475
00:22:48 5 1007 0 2 0 96.6 463
00:25:49 5 1008 0 1 0 96.6 454
00:28:47 5 1008 0 0 0 96.6 451
00:31:49 5 1008 0 3 0 96.6 448
00:34:48 5 1007 0 1 0 96.6 443
00:37:50 5 1007 0 1 0 96.6 436
00:40:47 5 1007 0 4 0 96.6 427
00:43:50 5 1007 0 4 0 96.6 422
00:46:47 5 1008 0 5 0 96.6 422
00:49:47 5 1007 0 4 0 96.6 424
00:52:49 5 1007 0 4 0 96.6 422
00:55:48 5 1008 0 3 0 96.6 423
00:58:47 5 1008 0 4 0 96.6 422
01:01:48 5 1007 0 3 0 96.6 422
01:04:47 5 1007 0 1 0 96.6 413
01:07:48 5 1007 0 2 0 96.6 415
01:10:52 5 1008 0 0 0 96.6 410
01:13:48 5 1007 0 3 0 96.6 407
01:16:49 5 1007 0 1 0 96.6 413
01:19:49 5 1008 0 8 0 96.6 436
01:22:48 5 1008 0 4 0 96.6 455
01:25:48 5 1007 0 3 0 96.6 478
01:28:46 5 1007 0 1 0 96.6 478
01:31:47 4 1007 0 1 0 96.6 480
01:34:48 4 1007 0 3 0 96.6 480
01:37:47 4 1007 0 1 0 96.6 481
01:40:48 4 1007 0 3 0 96.6 480
01:43:48 4 1007 0 4 0 96.6 484
01:46:47 4 1007 0 2 0 96.6 489
01:49:49 4 1007 0 3 0 96.6 486
01:52:48 4 1007 0 4 0 96.6 486
01:55:49 4 1007 0 5 0 96.6 492
01:58:48 4 1007 0 4 0 96.6 498
02:01:50 4 1008 0 6 0 96.6 499
02:04:48 4 1007 0 4 0 96.6 504
02:07:50 4 1008 0 3 0 96.6 507
02:10:47 4 1007 0 3 0 96.6 515
02:13:48 4 1007 0 5 0 96.6 512
02:16:48 4 1007 0 1 0 96.6 521
02:19:49 4 1007 0 3 0 96.6 531
02:22:50 4 1007 0 1 0 96.6 537
02:25:48 4 1007 0 1 0 96.6 531
02:28:49 4 1007 0 3 0 96.6 536
02:31:48 4 1007 0 6 0 96.6 536
02:34:49 4 1007 0 3 0 96.6 540
02:37:48 4 1008 0 4 0 96.6 542
02:40:49 4 1007 0 6 0 96.6 545
02:43:48 4 1007 0 10 0 96.6 557
02:46:47 4 1007 0 3 0 96.6 554
02:49:47 4 1007 0 1 0 96.6 560
02:52:47 4 1007 0 7 0 96.6 554
02:55:49 4 1007 0 3 0 96.6 557
02:58:48 4 1007 0 4 0 96.6 556
03:01:49 4 1006 0 3 0 96.6 560
03:04:47 4 1007 0 4 0 96.6 557
03:07:48 4 1007 0 3 0 96.6 560
03:10:51 4 1007 0 3 0 96.6 564
03:13:48 4 1007 0 8 0 96.6 572
03:16:48 4 1007 0 0 0 96.6 575
03:19:51 4 1007 0 1 0 96.6 572
03:22:48 4 1007 0 2 0 96.6 566
03:25:50 4 1006 0 0 0 96.6 574
03:28:48 4 1007 0 3 0 96.6 579
03:31:48 4 1007 0 2 0 96.6 580
03:34:48 4 1007 0 2 0 96.6 578
03:37:48 4 1008 0 2 0 96.6 579
03:40:49 4 1007 0 2 0 96.6 578
03:43:48 4 1007 0 2 0 96.6 582
03:46:48 4 1007 0 0 0 96.6 580
03:49:50 4 1007 0 1 0 96.6 581
03:52:49 3 1007 0 0 0 96.6 581
03:55:48 3 1007 0 3 0 96.6 583
03:58:48 4 1007 0 0 0 96.6 580
04:01:47 3 1007 0 0 0 96.6 580
04:04:47 4 1007 0 2 0 96.6 582
04:07:49 3 1007 0 2 0 96.6 598
04:10:48 3 1008 0 5 0 96.6 601
04:13:49 3 1007 0 2 0 96.6 597
04:16:48 3 1007 0 2 0 96.6 592
04:19:51 3 1007 0 3 0 96.6 596
04:22:48 3 1007 0 4 0 96.6 595
04:25:49 3 1008 0 5 0 96.6 598
04:28:48 3 1007 0 1 0 96.6 592
04:31:49 3 1007 0 3 0 96.6 587
04:34:47 3 1007 0 3 0 96.6 582
04:37:48 3 1008 0 3 0 96.6 592
04:40:49 3 1007 0 1 0 96.6 603
04:43:48 3 1007 0 3 0 96.6 607
04:46:47 3 1007 0 2 0 96.6 611
04:49:48 3 1007 0 1 0 96.6 610
04:52:48 3 1007 0 2 0 96.6 615
04:55:48 3 1007 0 2 0 96.6 611
04:58:46 3 1007 0 0 0 96.6 618
05:01:49 3 1007 0 5 0 96.6 618
05:04:50 3 1007 0 0 0 96.6 618
05:07:52 3 1008 0 2 0 96.6 613
05:10:48 3 1007 0 0 0 96.6 607
05:13:49 3 1007 0 3 0 96.6 603
05:16:48 3 1008 0 3 0 96.6 602
05:19:49 3 1007 0 1 0 96.6 603
05:22:47 3 1007 0 0 0 96.6 615
05:25:48 3 1008 0 1 0 96.6 612
05:28:50 3 1008 0 6 0 96.6 607
05:31:48 3 1007 0 2 0 96.6 609
05:34:50 3 1008 0 3 0 96.6 608
05:37:49 3 1007 0 3 0 96.6 618
05:40:47 3 1007 0 3 0 96.6 615
05:43:48 3 1008 0 0 0 96.6 615
05:46:48 3 1008 0 7 0 96.6 610
05:49:49 3 1008 0 1 0 96.6 615
05:52:49 3 1008 0 5 0 96.6 617
05:55:49 3 1007 0 2 0 96.6 616
05:58:48 3 1007 0 4 0 96.6 620
06:01:50 3 1008 0 3 0 96.6 621
06:04:48 3 1007 0 1 0 96.6 616
06:07:48 3 1008 0 2 0 96.6 612
06:10:47 3 1008 0 1 0 96.6 621
06:13:51 3 1008 0 3 0 96.6 625
06:16:49 3 1007 0 3 0 96.6 625
06:19:48 3 1008 0 4 0 96.6 615
06:22:47 3 1008 0 2 0 96.6 612
06:25:49 3 1008 0 2 0 96.6 624
06:28:49 3 1008 0 2 0 96.6 625
06:31:50 3 1008 0 0 0 96.6 626
06:34:48 3 1008 0 3 0 96.6 621
06:37:49 3 1008 0 1 0 96.6 624
06:40:50 3 1008 0 0 0 96.6 621
06:43:48 3 1007 0 1 0 96.6 630
06:46:49 3 1008 0 2 0 96.6 633
06:49:49 3 1008 0 4 0 96.6 630
06:52:48 3 1008 0 3 0 96.6 632
06:55:48 3 1007 0 2 0 96.6 626
06:58:49 3 1008 0 3 0 96.6 625
07:01:50 4 1008 0 3 0 96.6 616
07:04:47 4 1008 0 3 0 96.6 612
07:07:50 4 1008 0 2 0 96.6 616
07:10:49 4 1008 0 2 0 96.6 613
07:13:48 4 1008 0 5 0 96.6 618
07:16:48 4 1008 0 3 0 96.6 615
07:19:49 3 1008 5 2 0 96.6 413
07:22:48 3 1008 5 2 0 96.6 407
07:25:48 3 1009 6 3 0 96.6 439
07:28:48 3 1008 8 2 0 96.6 451
07:31:48 3 1009 12 4 0 96.6 457
07:34:48 3 1009 16 3 0 96.6 486
07:37:47 3 1008 23 3 0 96.6 483
07:40:50 3 1009 32 3 0 96.6 499
07:43:47 3 1009 41 3 0 96.6 554
07:46:52 3 1009 51 2 0 96.6 563
07:49:48 3 1009 61 3 0 96.6 536
07:52:50 3 1009 72 2 0 96.6 515
07:55:50 3 1009 82 2 0 96.6 509
07:58:46 3 1009 91 3 0 96.6 504
08:01:50 3 1009 100 1 0 96.6 512
08:04:51 3 1009 108 2 0 96.6 515
08:07:51 3 1009 116 2 0 96.6 524
08:10:51 3 1009 122 3 0 96.6 522
08:13:50 3 1009 129 2 0 96.6 533
08:16:48 3 1009 135 3 0 96.6 539
08:19:50 3 1009 141 2 0 96.6 550
08:22:48 3 1009 146 4 0 96.6 550
08:25:48 3 1009 151 3 0 96.6 551
08:28:50 3 1009 155 2 0 96.6 548
08:31:47 3 1009 159 2 0 96.6 551
08:34:52 3 1009 165 4 0 96.6 550
08:37:50 4 1009 166 2 0 96.6 556
08:40:52 4 1010 169 3 0 96.6 548
08:43:49 4 1009 171 5 0 96.6 560
08:46:48 4 1009 173 2 0 96.6 565
08:49:51 4 1009 173 4 0 96.6 573
08:52:48 4 1010 170 1 0 96.6 577
08:55:49 5 1009 168 7 0 96.6 577
08:58:51 5 1009 171 3 0 96.6 586
09:01:48 5 1009 174 5 0 96.6 591
09:04:50 5 1010 177 6 0 96.6 591
09:07:53 5 1009 179 6 0 96.6 586
09:10:51 5 1009 179 4 0 96.6 586
09:13:49 5 1010 183 2 0 96.6 583
09:16:50 5 1009 182 2 0 96.6 589
09:19:50 5 1010 185 5 0 96.6 589
09:22:51 5 1010 185 3 0 96.6 590
09:25:50 5 1010 186 3 0 96.6 592
09:28:49 5 1009 184 6 0 96.6 595
09:31:50 5 1010 185 5 0 96.6 601
09:34:49 5 1010 182 9 0 96.6 612
09:37:50 5 1010 180 6 0 96.6 621
09:40:49 5 1010 183 4 0 96.5 628
09:43:49 5 1010 185 1 0 96.4 624
09:46:51 5 1010 183 4 0 96.6 628
09:49:50 5 1010 183 4 0 96.6 633
09:52:50 5 1010 187 5 0 96.5 637
09:55:48 5 1010 187 2 0 96.4 639
09:58:49 5 1010 188 4 0 96.5 645
10:01:51 5 1010 188 3 0 96.6 648
10:04:49 5 1010 189 7 0 96.5 648
10:07:52 5 1010 189 13 0 95.7 642
10:10:51 5 1010 191 3 0 95.2 639
10:13:49 5 1010 198 6 0 95.4 642
10:16:51 6 1010 202 7 0 95.3 648
10:19:49 6 1010 201 10 0 95.1 654
10:22:49 6 1010 195 4 0 94.1 651
10:25:52 6 1010 198 1 0 92.8 645
10:28:50 6 1010 193 4 0 92 642
10:31:49 6 1010 193 4 0 91.7 644
10:34:49 6 1010 195 7 0 91.2 639
10:37:50 6 1010 194 6 0 91.2 639
10:40:51 6 1010 197 14 0 91.9 647
10:43:52 6 1010 197 11 0 91.4 646
10:46:48 6 1010 197 7 0 91.8 645
10:49:51 6 1010 200 4 0 91.6 641
10:52:51 6 1010 198 5 0 91.6 645
10:55:51 7 1010 198 5 0 91.2 653
10:58:51 7 1010 199 8 0 90.6 645
11:01:52 7 1010 201 0 0 90 651
11:04:49 7 1010 199 5 0 89.9 656
11:07:52 7 1010 200 6 0 90.5 659
11:10:50 7 1010 200 6 0 90.4 656
11:13:48 7 1010 200 5 0 90.3 656
11:16:49 7 1010 200 6 0 90.1 657
11:19:50 7 1010 200 7 0 87.3 656
11:22:49 7 1010 201 8 0 87.3 635
11:25:50 7 1010 201 6 0 87.9 606
11:28:51 7 1010 201 10 0 87.1 613
11:31:52 8 1011 203 4 0 85.7 631
11:34:50 8 1010 202 7 0 85.8 634
11:37:49 8 1010 202 5 0 85.3 627
11:40:51 8 1010 206 3 0 84.5 622
11:43:51 9 1010 204 6 0 84.9 627
11:46:51 9 1010 205 4 0 80.5 628
11:49:50 9 1010 211 10 0 79.8 622
11:52:49 10 1011 207 7 0 78.3 619
11:55:53 10 1010 206 6 0 78.3 622
11:58:50 10 1011 210 3 0 76.5 619
12:01:49 11 1010 211 5 0 75.7 632
12:04:50 11 1010 208 8 0 75.1 626
12:07:51 11 1010 211 5 0 73.3 630
12:10:50 11 1011 212 9 0 70.7 633
12:13:51 11 1010 212 8 0 70.4 635
12:16:50 12 1010 212 5 0 70.4 635
12:19:51 12 1010 213 4 0 70.8 644
12:22:50 12 1010 211 8 0 70.3 651
12:25:51 12 1010 215 5 0 69.2 659
12:28:52 12 1010 215 8 0 68.1 659
12:31:52 12 1011 219 3 0 68 657
12:34:49 12 1011 217 9 0 67.5 654
12:37:49 12 1011 223 4 0 66.1 651
12:40:51 12 1010 225 6 0 67.4 648
12:43:49 12 1010 222 4 0 67.6 651
12:46:50 13 1010 224 1 0 66.5 650
12:49:50 13 1011 215 11 0 65.3 648
12:52:52 12 1010 221 12 0 64.3 659
12:55:50 12 1010 214 6 0 64.6 663
12:58:50 11 1011 219 8 0 66.1 661
13:01:51 11 1010 221 8 0 67.9 660
13:04:50 11 1010 222 5 0 68.8 662
13:07:50 10 1010 219 9 0 69.8 668
13:10:50 10 1010 209 2 0 70.4 672
13:13:49 10 1010 210 8 0 71.3 674
13:16:50 10 1010 213 5 0 70.3 665
13:19:49 11 1010 220 5 0 70.3 661
13:22:50 11 1010 224 11 0 69.5 665
13:25:51 11 1011 221 5 0 68.6 670
13:28:50 11 1011 228 17 0 68.2 670
13:31:48 11 1010 217 6 0 67.4 671
13:34:48 11 1010 230 4 0 67.4 678
13:37:51 11 1011 219 1 0 69 668
13:40:51 11 1011 221 4 0 69.7 679
13:43:49 10 1011 224 9 0 69.6 680
13:46:49 11 1011 232 1 0 71.6 682
13:49:49 11 1011 217 8 0 69.3 684
13:52:51 11 1011 223 6 0 68.6 683
13:55:52 11 1010 236 5 0 69.5 682
13:58:52 11 1011 227 4 0 70.4 685
14:01:50 11 1011 241 3 0 70.8 692
14:04:50 11 1011 241 5 0 71 697
14:07:50 11 1011 241 5 0 70.8 698
14:10:47 11 1011 242 4 0 71.1 700
14:13:54 11 1011 236 11 0 69.2 692
14:16:48 11 1011 234 6 0 68.4 700
14:19:49 11 1011 234 5 0 69.4 697
14:22:50 11 1010 229 4 0 69.5 703
14:25:50 10 1011 238 1 0 68.9 698
14:28:50 10 1011 235 5 0 70.6 698
14:31:48 10 1011 239 4 0 71.8 701
14:34:51 10 1011 230 2 0 72.9 703
14:37:50 10 1011 236 4 0 72.7 703
14:40:51 10 1012 232 3 0 71.8 742
14:43:48 10 1011 235 5 0 71 745
14:46:47 10 1012 213 3 0 71.2 741
14:49:49 10 1011 211 6 0 71.7 748
14:52:47 9 1011 211 4 0 72.5 744
14:55:49 9 1011 214 4 0 73.8 753
14:58:49 9 1011 213 5 0 74.4 750
15:01:48 9 1010 214 6 0 75.3 750
15:04:49 9 1011 210 7 0 75.5 742
15:07:49 9 1011 208 9 0 75.6 745
15:10:52 9 1011 205 5 0 75.6 744
15:13:50 8 1011 202 5 0 76.9 737
15:16:48 8 1010 198 4 0 77.2 741
15:19:50 8 1012 199 5 0 77.8 741
15:22:49 8 1012 199 4 0 78.4 742
15:25:50 8 1011 190 6 0 78.9 748
15:28:48 8 1011 185 6 0 79.7 753
15:31:48 8 1011 182 5 0 80.1 758
15:34:48 7 1010 180 3 0 80.7 757
15:37:48 7 1011 181 7 0 81.2 765
15:40:49 7 1012 177 6 0 81.6 757
15:43:48 7 1011 175 2 0 81.9 750
15:46:48 7 1011 172 3 0 82.3 753
15:49:50 7 1012 170 7 0 82.4 757
15:52:48 7 1011 165 2 0 82.5 754
15:55:49 7 1011 161 6 0 83 765
15:58:47 7 1011 156 3 0 83.2 764
16:01:49 7 1012 150 7 0 83.5 764
16:04:48 7 1012 141 4 0 83.6 764
16:07:49 7 1012 132 7 0 83.6 762
16:10:51 7 1012 122 2 0 83.7 764
16:13:49 7 1011 111 3 0 83.8 767
16:16:51 6 1011 103 7 0 84 755
16:19:48 6 1012 92 3 0 84.3 754
16:22:49 6 1012 80 4 0 84.6 753
16:25:48 6 1012 70 3 0 84.7 765
16:28:48 6 1012 56 4 0 84.9 771
16:31:47 6 1012 44 5 0 85 772
16:34:47 6 1012 32 3 0 85.4 764
16:37:49 6 1012 23 1 0 85.6 762
16:40:47 6 1012 16 1 0 85.7 761
16:43:50 6 1012 11 2 0 86.2 771
16:46:48 6 1012 8 4 0 86.4 768
16:49:50 6 1011 6 2 0 87 766
16:52:47 6 1011 4 3 0 87.5 762
16:55:48 6 1011 3 2 0 87.6 765

Letzte Änderung : 17-Nov-2020
Copyright Jens Köhler, Wolfsburg, Obere Dorfstraße 10d